Aspen, CO

6:22 PM MDT on April 28, 2017 (GMT -0600)
Aspen-Pitkin County / Sardy Field

Weather History for KASE - March, 2014

Change the Weather History Date:

Wednesday, March 12, 2014

  Actual Average Record
Temperature  
Mean Temperature 25 °F 30 °F  
Max Temperature 43 °F 42 °F 56 °F (1989)
Min Temperature 6 °F 18 °F -5 °F (1993)
Degree Days  
Heating Degree Days 40 35  
Month to date heating degree days 383 446  
Since 1 July heating degree days 6514 6765  
Cooling Degree Days 0 0  
Month to date cooling degree days 0 0  
Year to date cooling degree days 0 0  
Moisture  
Dew Point 8 °F    
Average Humidity 51    
Maximum Humidity 83    
Minimum Humidity 18    
Precipitation  
Precipitation 0.00 in 0.04 in 1.04 in (1982)
Month to date precipitation 0.72 0.46  
Year to date precipitation 3.50 2.70  
Sea Level Pressure  
Sea Level Pressure 30.32 in    
Wind  
Wind Speed 6 mph (WSW)    
Max Wind Speed 12 mph    
Max Gust Speed 15 mph    
Visibility 10 miles    
Events      
T = Trace of Precipitation, MM = Missing Value Source: NWS Daily Summary

Daily Weather History Graph

Daily Weather History Graph

Search for Another Location

Airport or City:

Trip Planner

Search our weather history database for the weather conditions in past years. The results will help you decide how hot, cold, wet, or windy it might be!

Date:

Astronomy

Mar. 12, 2014 Rise Set
Actual Time 7:23 AM MDT 7:11 PM MDT
Civil Twilight 6:56 AM MDT 7:38 PM MDT
Nautical Twilight 6:25 AM MDT 8:09 PM MDT
Astronomical Twilight 5:54 AM MDT 8:40 PM MDT
Moon 3:45 PM MDT (3/12) 4:55 AM MDT (3/12)
Length of Visible Light 12h 41m
Length of Day
11h 48m
Waxing Gibbous, 86% of the Moon is Illuminated
Mar 12
Waxing Gibbous
Mar 16
Full
Mar 23
Last Quarter
Mar 30
New
Apr 7
First Quarter

Hourly Weather History & Observations

Time (MDT) Temp. Windchill Dew Point Humidity Pressure Visibility Wind Dir Wind Speed Gust Speed Precip Events Conditions
12:22 AM 15.1 °F - 10.9 °F 84% 30.23 in 10.0 mi Calm Calm - N/A   Scattered Clouds
12:53 AM 15.1 °F 7.7 °F 10.0 °F 80% 30.26 in 10.0 mi SSW 4.6 mph - N/A   Clear
1:53 AM 15.1 °F 5.2 °F 9.0 °F 77% 30.27 in 10.0 mi South 6.9 mph - N/A   Clear
2:53 AM 10.9 °F 2.9 °F 6.1 °F 81% 30.30 in 10.0 mi SW 4.6 mph - N/A   Unknown
3:53 AM 14.0 °F 5.1 °F 8.1 °F 77% 30.29 in 10.0 mi SSW 5.8 mph - N/A   Mostly Cloudy
4:53 AM 14.0 °F 3.9 °F 7.0 °F 74% 30.36 in 10.0 mi SSW 6.9 mph - N/A   Mostly Cloudy
5:02 AM 14.0 °F 3.9 °F 6.1 °F 71% 30.29 in 10.0 mi SSW 6.9 mph - N/A   Partly Cloudy
5:53 AM 10.9 °F 1.4 °F 5.0 °F 77% 30.40 in 10.0 mi SSW 5.8 mph - N/A   Clear
6:53 AM 7.0 °F -6.6 °F 1.9 °F 80% 30.44 in 10.0 mi SSW 9.2 mph - N/A   Clear
7:53 AM 9.0 °F -3.2 °F 1.9 °F 73% 30.43 in 10.0 mi SSW 8.1 mph - N/A   Clear
8:53 AM 14.0 °F - 6.1 °F 71% 30.44 in 10.0 mi Calm Calm - N/A   Clear
9:53 AM 19.0 °F 12.3 °F 7.0 °F 59% 30.45 in 10.0 mi NW 4.6 mph - N/A   Clear
10:53 AM 24.1 °F 17.0 °F 9.0 °F 53% 30.43 in 10.0 mi North 5.8 mph - N/A   Clear
11:53 AM 28.0 °F 22.8 °F 9.0 °F 45% 30.38 in 10.0 mi North 4.6 mph - N/A   Clear
12:53 PM 33.1 °F - 9.0 °F 37% 30.35 in 10.0 mi Calm Calm - N/A   Clear
1:53 PM 36.0 °F 33.3 °F 8.1 °F 31% 30.29 in 10.0 mi NNW 3.5 mph - N/A   Clear
2:53 PM 39.0 °F 34.8 °F 10.0 °F 30% 30.27 in 10.0 mi NNW 5.8 mph - N/A   Clear
3:53 PM 39.9 °F 36.7 °F 3.0 °F 21% 30.23 in 10.0 mi WNW 4.6 mph - N/A   Clear
4:53 PM 41.0 °F 37.1 °F 1.9 °F 20% 30.21 in 10.0 mi NNW 5.8 mph - N/A   Clear
5:53 PM 41.0 °F 39.0 °F 6.1 °F 24% 30.22 in 10.0 mi NNW 3.5 mph - N/A   Clear
6:53 PM 30.0 °F 23.2 °F 12.9 °F 49% 30.30 in 10.0 mi SW 6.9 mph - N/A   Clear
7:53 PM 30.0 °F 21.7 °F 16.0 °F 56% 30.31 in 10.0 mi SSW 9.2 mph - N/A   Clear
8:53 PM 28.0 °F 19.3 °F 12.9 °F 53% 30.31 in 10.0 mi SW 9.2 mph - N/A   Clear
9:53 PM 25.0 °F 16.3 °F 12.0 °F 58% 30.30 in 10.0 mi SSW 8.1 mph - N/A   Clear
10:53 PM 24.1 °F 15.2 °F 10.9 °F 57% 30.27 in 10.0 mi SSW 8.1 mph - N/A   Clear
11:53 PM 21.9 °F 11.7 °F 10.0 °F 60% 30.27 in 10.0 mi SSW 9.2 mph - N/A   Clear